User: anonymous   Login
Location: Caltech
(34.1382°N, 118.1253°W)
Time: 23:18:37
(UTC-08:00)
Language:

ERBS - Orbit

View from above orbital plane
View from above orbital plane
View from above satellite
View from above satellite

Ground track
Ground track

The orbit data is extracted from the following two-line orbital elements,

1 15354U 84108B   14326.02163850  .00014230  00000-0  47454-3 0  6411
2 15354 057.0120 188.7647 0020554 122.1105 238.1943 15.31204341653776
Epoch (UTC): 22 November 2014 00:31:09
Eccentricity: 0.0020554
inclination: 57.0120°
perigee height: 458 km
apogee height: 486 km
right ascension of ascending node: 188.7647°
argument of perigee: 122.1105°
revolutions per day: 15.31204341
mean anomaly at epoch: 238.1943°
orbit number at epoch: 65377

The dashed part of the orbit path shows where the satellite is in the earth's shadow,  

DLR